Home > Weather > Onex > Past weeks

Flag for Switzerland Past Weather in Onex, Geneva, Switzerland — Yesterday and Last 2 Weeks

Now
46 °F

Passing clouds.


Feels Like: 46 °F
Forecast: 41 / 68 °F
Wind: No wind

Location: Geneva Cointrin Airport

Current Time: May 25, 2016 at 1:36:49 AM

Latest Report: May 25, 2016 at 1:20 AM


Visibility: N/A

Pressure: 29.95 "Hg

Humidity: 87%

Dew Point: 43 °F

Location of OnexLocation

Past Weather in Onex — Graph

°F

Onex Temperature Yesterday

Maximum temperature yesterday: 59 °F (at 2:20 PM)
Minimum temperature yesterday: 46 °F (at 3:50 AM)
Average temperature yesterday: 52 °F

High & Low Weather Summary for the Past Weeks

 TemperatureHumidityPressure
High79 °F (May 21, 5:20 PM)100% (May 12, 4:50 AM)30.21 "Hg (May 12, 4:50 AM)
Low36 °F (May 16, 5:50 AM)31% (May 18, 4:20 PM)29.56 "Hg (May 11, 6:20 PM)
Average55 °F71%29.93 "Hg
* Reported May 10 12:20 AM — May 25 12:20 AM, Onex, Weather by CustomWeather, © 2016

Note: Actual official high and low records may vary slightly from our data, if they occured in-between our weather recording intervals... More about our weather records

Advertising

Onex Weather History for the Previous 24 Hours

Scroll right to see more
 ConditionsComfort  
Time TempWeatherWind HumidityBarometerVisibility
12:20 AM
Wed, May 25
48 °FPassing clouds.1 mph82%29.95 "HgN/A
11:50 PM
Tue, May 24
48 °FPassing clouds.2 mph82%29.95 "HgN/A
11:20 PM50 °FPassing clouds.1 mph82%29.95 "HgN/A
10:50 PM50 °FPassing clouds.1 mph82%29.95 "HgN/A
10:20 PM50 °FPassing clouds.1 mph82%29.92 "HgN/A
9:50 PM52 °FScattered clouds.5 mph77%29.92 "HgN/A
9:20 PM54 °FScattered clouds.3 mph72%29.92 "HgN/A
8:50 PM55 °FScattered clouds.2 mph67%29.92 "HgN/A
8:20 PM57 °FScattered clouds.6 mph59%29.92 "HgN/A
7:50 PM59 °FPartly sunny.6 mph55%29.92 "HgN/A
7:20 PM59 °FPartly sunny.6 mph55%29.92 "HgN/A
6:50 PM59 °FPartly sunny.6 mph51%29.92 "HgN/A
6:20 PM59 °FPartly sunny.6 mph55%29.95 "HgN/A
5:50 PM59 °FPartly sunny.8 mph51%29.95 "HgN/A
5:20 PM59 °FPartly sunny.7 mph48%29.95 "HgN/A
2:50 PM57 °FScattered showers. Partly sunny.8 mph59%29.98 "HgN/A
2:20 PM59 °FScattered showers. Partly sunny.7 mph55%29.98 "HgN/A
11:50 AM57 °FScattered showers. Scattered clouds.5 mph63%30.01 "HgN/A
11:20 AM55 °FScattered showers. Partly sunny.6 mph63%30.01 "HgN/A
10:50 AM55 °FScattered clouds.6 mph67%30.04 "HgN/A
10:20 AM54 °FPassing clouds.3 mph72%30.04 "HgN/A
9:50 AM54 °FPassing clouds.2 mph72%30.04 "HgN/A
9:20 AM52 °FPassing clouds.2 mph77%30.04 "HgN/A
8:50 AM50 °FScattered clouds.5 mph76%30.04 "HgN/A
8:20 AM50 °FPassing clouds.3 mph76%30.04 "HgN/A
7:50 AM48 °FBroken clouds.3 mph82%30.07 "HgN/A
7:20 AM48 °FBroken clouds.3 mph82%30.07 "HgN/A
6:50 AM46 °FPassing clouds.2 mph93%30.07 "HgN/A
6:20 AM46 °FPartly cloudy.2 mph87%30.07 "HgN/A
5:50 AM46 °FPassing clouds.3 mph87%30.07 "HgN/A
5:20 AM46 °FPassing clouds.3 mph87%30.07 "HgN/A
4:50 AM46 °FPassing clouds.5 mph87%30.07 "HgN/A
4:20 AM46 °FPassing clouds.5 mph87%30.07 "HgN/A
3:50 AM46 °FPassing clouds.6 mph87%30.07 "HgN/A
2:50 AM48 °FPassing clouds.3 mph82%30.09 "HgN/A
2:20 AM48 °FPassing clouds.5 mph82%30.07 "HgN/A
1:50 AM48 °FPassing clouds.5 mph82%30.09 "HgN/A
1:20 AM48 °FPassing clouds.1 mph87%30.09 "HgN/A
Weather by CustomWeather, © 2016

See weather overviewHow to use our weather pages